Location: Ertinghausen
(51.6624°N, 9.7874°E)
Time: 09:52:23
(UTC+00:00)

Meteor 1-4 Rocket - Pass Details

Date: 23 May 2024
Orbit: 358 x 379 km, 81.2° (Epoch: 18 June)

Event Time Altitude Azimuth Distance (km) Brightness Sun altitude
Exits shadow 00:56:08 33° 176° (S) 629 2.6 -14.5°
Maximum altitude 00:57:14 70° 101° (E) 388 2.0 -14.5°
Drops below altitude 10° 01:00:10 10° 17° (NNE) 1,357 6.2 -14.3°
Sets 01:02:09 0° 15° (NNE) 2,213 7.7 -14.2°
